User: anonymous   Login
Location: Stonelick Lake State Park
(39.2170°N, 84.0850°W)
Time: 13:36:02
(UTC-04:00)
Language:

Abrixas rocket - Orbit

View from above orbital plane
View from above orbital plane
View from above satellite
View from above satellite

Ground track
Ground track

The orbit data is extracted from the following two-line orbital elements,

1 25723U 99022C   15187.49089759  .00011297  00000-0  27482-3 0  9990
2 25723 048.4214 328.7568 0015159 233.3418 163.6128 15.41226670896215
Epoch (UTC): 06 July 2015 11:46:53
Eccentricity: 0.0015159
inclination: 48.4214°
perigee height: 432 km
apogee height: 453 km
right ascension of ascending node: 328.7568°
argument of perigee: 233.3418°
revolutions per day: 15.41226670
mean anomaly at epoch: 163.6128°
orbit number at epoch: 89621

The dashed part of the orbit path shows where the satellite is in the earth's shadow,  

DLR